Location: Cherry Grove
(44.1968°N, 92.8624°W)
Time: 13:09:37
(UTC-05:00)

Envisat - Visible Passes

Search period start: 20 October 2017 00:00
Search period end: 30 October 2017 00:00
Orbit: 764 x 766 km, 98.2° (Epoch: 20 October)

Date Brightness Start Highest point End Pass type
(mag) Time Alt. Az. Time Alt. Az. Time Alt. Az.
20 Oct 3.4 20:38:47 49° NNE 20:38:47 49° NNE 20:42:40 10° N visible
20 Oct 5.7 22:19:00 14° WNW 22:19:00 14° WNW 22:20:23 10° NW visible
21 Oct 3.9 20:01:48 29° NE 20:01:48 29° NE 20:05:31 10° N visible
21 Oct 4.9 21:42:01 27° NW 21:42:01 27° NW 21:44:45 10° NNW visible
22 Oct 4.6 19:24:49 15° ENE 19:24:52 15° ENE 19:27:42 10° NNE visible
22 Oct 4.0 21:05:02 41° NNW 21:05:02 41° NNW 21:08:20 10° NNW visible
23 Oct 3.7 20:28:03 38° NNE 20:28:03 38° NNE 20:31:29 10° N visible
23 Oct 5.6 22:08:16 16° WNW 22:08:16 16° WNW 22:09:43 10° NW visible
24 Oct 4.2 19:51:04 23° NE 19:51:04 23° NE 19:54:12 10° N visible
24 Oct 4.8 21:31:16 27° NW 21:31:16 27° NW 21:33:47 10° NNW visible
25 Oct 4.8 19:14:04 12° NE 19:14:04 12° NE 19:15:55 10° NNE visible
25 Oct 4.1 20:54:17 36° N 20:54:17 36° N 20:57:13 10° NNW visible
26 Oct 4.1 20:17:18 30° NNE 20:17:18 30° NNE 20:20:16 10° N visible
26 Oct 5.5 21:57:31 17° NW 21:57:31 17° NW 21:58:57 10° NW visible
27 Oct 4.5 19:40:18 19° NE 19:40:18 19° NE 19:42:47 10° NNE visible
27 Oct 4.8 21:20:31 26° NNW 21:20:31 26° NNW 21:22:46 10° NNW visible
28 Oct 4.3 20:43:31 30° N 20:43:31 30° N 20:46:06 10° N visible
29 Oct 4.3 20:06:32 24° NNE 20:06:32 24° NNE 20:09:00 10° N visible
29 Oct 5.5 21:46:44 17° NW 21:46:44 17° NW 21:48:04 10° NNW visible
